TimeEDT,TemperatureF,Dew PointF,Humidity,Sea Level PressureIn,VisibilityMPH,Wind Direction,Wind SpeedMPH,Gust SpeedMPH,PrecipitationIn,Events,Conditions,WindDirDegrees,DateUTC
12:51 AM,41.0,36.0,82,30.34,10.0,WNW,4.6,-,N/A,,Clear,290,2013-04-28 04:51:00
1:51 AM,39.9,35.1,83,30.33,10.0,Calm,Calm,-,N/A,,Clear,0,2013-04-28 05:51:00
2:51 AM,39.0,34.0,82,30.32,10.0,Calm,Calm,-,N/A,,Clear,0,2013-04-28 06:51:00
3:51 AM,39.0,35.1,86,30.31,10.0,West,3.5,-,N/A,,Clear,260,2013-04-28 07:51:00
4:51 AM,35.1,32.0,89,30.31,10.0,WNW,4.6,-,N/A,,Clear,290,2013-04-28 08:51:00
5:51 AM,36.0,33.1,89,30.31,10.0,WNW,3.5,-,N/A,,Clear,290,2013-04-28 09:51:00
6:51 AM,39.9,35.1,83,30.33,10.0,WNW,3.5,-,N/A,,Clear,290,2013-04-28 10:51:00
7:51 AM,46.0,37.9,73,30.34,10.0,Calm,Calm,-,N/A,,Clear,0,2013-04-28 11:51:00
8:51 AM,50.0,42.1,74,30.34,10.0,East,3.5,-,N/A,,Clear,100,2013-04-28 12:51:00
9:51 AM,55.0,37.9,53,30.35,10.0,East,4.6,-,N/A,,Clear,80,2013-04-28 13:51:00
10:51 AM,57.0,37.0,47,30.35,10.0,East,8.1,-,N/A,,Clear,80,2013-04-28 14:51:00
11:51 AM,59.0,35.1,41,30.34,10.0,South,8.1,-,N/A,,Clear,170,2013-04-28 15:51:00
12:51 PM,60.1,35.1,39,30.32,10.0,South,9.2,-,N/A,,Clear,170,2013-04-28 16:51:00
1:51 PM,59.0,35.1,41,30.32,10.0,SSE,10.4,-,N/A,,Clear,160,2013-04-28 17:51:00
2:51 PM,60.1,35.1,39,30.30,10.0,South,11.5,-,N/A,,Clear,170,2013-04-28 18:51:00
3:51 PM,57.9,32.0,37,30.28,10.0,South,12.7,-,N/A,,Clear,180,2013-04-28 19:51:00
4:51 PM,57.9,30.0,35,30.27,10.0,South,13.8,-,N/A,,Clear,170,2013-04-28 20:51:00
5:51 PM,55.9,30.0,37,30.27,10.0,South,9.2,-,N/A,,Clear,180,2013-04-28 21:51:00
6:51 PM,54.0,33.1,45,30.27,10.0,South,8.1,-,N/A,,Clear,180,2013-04-28 22:51:00
7:51 PM,50.0,35.1,57,30.27,10.0,SSW,9.2,-,N/A,,Clear,200,2013-04-28 23:51:00
8:51 PM,48.9,37.0,64,30.27,10.0,South,5.8,-,N/A,,Clear,190,2013-04-29 00:51:00
9:51 PM,48.0,37.9,68,30.27,10.0,SSW,3.5,-,N/A,,Clear,200,2013-04-29 01:51:00
10:51 PM,46.9,37.9,71,30.27,10.0,Calm,Calm,-,N/A,,Clear,0,2013-04-29 02:51:00
11:51 PM,46.0,37.0,71,30.27,10.0,Calm,Calm,-,N/A,,Clear,0,2013-04-29 03:51:00